Regional Weather Roundup
Issued by NWS Newport/Morehead, NC

Current Version | Previous Version | Graphics & Text | Print | Product List | Glossary Off
Versions: 1 2 3 4 5 6 7 8 9 10 11 12 13 14 15 16 17 18 19 20 21 22 23 24 25 26 27 28 29 30 31 32 33 34 35 36 37 38 39 40 41 42 43 44 45 46 47 48 49 50
000 ASUS42 KMHX 260710 RWRMHX WEATHER ROUNDUP FOR EASTERN NORTH CAROLINA NATIONAL WEATHER SERVICE NEWPORT/MOREHEAD CITY NC 200 AM EST WED NOV 26 2014 NOTE: "FAIR" INDICATES FEW OR NO CLOUDS BELOW 12,000 FEET WITH NO SIGNIFICANT WEATHER AND/OR OBSTRUCTIONS TO VISIBILITY NCZ015>017-031-032-045>047-102-103-260800- NORTH COAST CITY SKY/WX TMP DP RH WIND PRES REMARKS EDENTON DRIZZLE 54 54 99 N3 29.98S ELIZABETH CITY LGT RAIN 58 54 86 NE10 29.98F FOG KITTY HAWK RAIN 60 60 99 E10 29.96F MANTEO RAIN 59 59 99 NE14 29.97F $$ NCZ045>047-081-094-103-104-260800- CENTRAL COAST CITY SKY/WX TMP DP RH WIND PRES REMARKS FRISCO LGT RAIN 59 59 100 NE9 29.96F FOG SWANQUARTER N/A 59 N/A N/A NE10G18 29.91R $$ NCZ095-097-098-100-101-260800- SOUTHERN COAST CITY SKY/WX TMP DP RH WIND PRES REMARKS BEAUFORT LGT RAIN 63 63 100 E7 29.88F CEDAR ISLAND N/A 57 N/A N/A E20G28 29.91F JACKSONVILLE CLOUDY 63 61 93 NE7 29.89F PINEY ISLAND LGT RAIN 61 58 90 E12G24 29.89F FOG WILMINGTON CLOUDY 64 63 96 E8 29.83F $$ NCZ011>013-027>030-043-044-078>080-089-090>093-098-260800- COASTAL PLAIN CITY SKY/WX TMP DP RH WIND PRES REMARKS AHOSKIE RAIN 50 49 97 NE8 29.97F CLINTON DRIZZLE 54 54 100 NE7 29.88F ELIZABETHTOWN CLOUDY 56 56 100 CALM 29.85F FOG GOLDSBORO LGT RAIN 55 54 94 N5 29.89F GREENVILLE RAIN 54 54 100 NE6 29.95F HAVELOCK LGT RAIN 59 57 93 NE7 29.91F KENANSVILLE CLOUDY 55 55 98 CALM 29.90F FOG KINSTON RAIN 57 57 98 NE7 29.92F NEW BERN CLOUDY 61 58 90 E10 29.92F RICHLANDS CLOUDY 59 57 94 NE10 29.89F ROCKY MOUNT LGT RAIN 51 50 96 NE10 29.95F FOG WASHINGTON CLOUDY 55 54 97 NE7 29.95F WHITEVILLE CLOUDY 57 57 100 NE7 29.82F FOG $$ AMZ130-135-150-152-154-156-158-170-250-252-270-ANZ085-086-088-633-658-670-260800- MARINE OBSERVATIONS STATION/POSITION TIME TEMP WIND PRES WAVE SWELL AIR SEA DIR/SP/G HT/PER HT/PER (UTC) (F) (DEG/KT/KT) (MB) (FT/S) (FT/S) CHESAPEAKE LIGHT 0600 53 50/ 19/ 20 1018.4 64 E VA BEACH 0700 61 64 50/ 17/ 21 1015.9 5/ 8 3/ 8 DUCK 0700 58 59 60/ 17/ 20 1014.3 2 E DUCK 0700 58 N/A 3/ 9 2/11 10 NE DUCK 0700 59 N/A 4/ 8 2/11 OREGON INLET 0700 61 57 50/ 8/ 10 1015.2 13E OREGON INLT 0700 62 N/A 4/ 9 2/11 HATTERAS CG 0700 60 62 40/ 7/ 11 1015.1 DIAMOND BUOY 0700 69 170/ 8/ 12 1014.7 5/ 9 5/ 9 17 S OCRACOKE NOT AVBL CAPE LOOKOUT 0600 63 90/ 11/ 14 1014.1 BEAUFORT LAB 0700 63 59 100/ 10/ 15 1011.3 30 SE NEW RIVER 0700 70 68 140/ 19/ 23 1011.1 5/ 8 3/ 8 5 SE WRIGHTSVLE 0600 59 59 70/ 12/ 16 1011.4 225 S CAPE HAT 0631 75 73 180/ 19/ 23 1016.1 6/ 8 3/ 8 41 SE CHARLESTON 0700 74 75 130/ 27/ 33 1007.3 8/ 6 2/17 $$

USA.gov is the U.S. government's official web portal to all federal, state and local government web resources and services.